TimeCDT,TemperatureF,Dew PointF,Humidity,Sea Level PressureIn,VisibilityMPH,Wind Direction,Wind SpeedMPH,Gust SpeedMPH,PrecipitationIn,Events,Conditions,WindDirDegrees,DateUTC
12:24 AM,68.0,66.2,94,29.70,0.5,Calm,Calm,-,N/A,Fog,Fog,0,2013-09-10 05:24:00
12:39 AM,68.0,66.2,94,29.70,0.2,Calm,Calm,-,N/A,Fog,Fog,0,2013-09-10 05:39:00
12:54 AM,68.0,66.9,96,29.71,0.5,NNW,8.1,-,N/A,Fog,Fog,340,2013-09-10 05:54:00
1:13 AM,69.8,68.0,94,29.72,0.2,Calm,Calm,-,N/A,Fog,Fog,0,2013-09-10 06:13:00
1:54 AM,69.1,68.0,96,29.72,0.2,Calm,Calm,-,N/A,Fog,Fog,0,2013-09-10 06:54:00
2:54 AM,66.9,66.0,97,29.74,0.2,Calm,Calm,-,N/A,Fog,Fog,0,2013-09-10 07:54:00
3:11 AM,66.2,64.4,94,29.75,0.2,South,4.6,-,N/A,Fog,Fog,190,2013-09-10 08:11:00
3:39 AM,66.2,64.4,94,29.75,0.2,Calm,Calm,-,N/A,Fog,Fog,0,2013-09-10 08:39:00
3:51 AM,64.4,64.4,100,29.74,0.5,Calm,Calm,-,N/A,Fog,Fog,0,2013-09-10 08:51:00
3:54 AM,64.9,64.0,97,29.74,0.5,Calm,Calm,-,N/A,Fog,Fog,0,2013-09-10 08:54:00
4:06 AM,64.4,64.4,100,29.74,1.2,Calm,Calm,-,N/A,,Partly Cloudy,0,2013-09-10 09:06:00
4:10 AM,64.4,64.4,100,29.75,0.8,Calm,Calm,-,N/A,,Mist,0,2013-09-10 09:10:00
4:22 AM,64.4,62.6,94,29.75,0.2,Calm,Calm,-,N/A,Fog,Fog,0,2013-09-10 09:22:00
4:30 AM,64.4,64.4,100,29.75,0.5,Calm,Calm,-,N/A,Fog,Fog,0,2013-09-10 09:30:00
4:47 AM,64.4,64.4,100,29.76,0.8,Calm,Calm,-,N/A,,Mist,0,2013-09-10 09:47:00
4:54 AM,64.9,64.0,97,29.75,1.0,Calm,Calm,-,N/A,,Mist,0,2013-09-10 09:54:00
4:57 AM,64.4,64.4,100,29.76,2.0,Calm,Calm,-,N/A,,Partly Cloudy,0,2013-09-10 09:57:00
5:05 AM,64.4,64.4,100,29.76,1.2,Calm,Calm,-,N/A,,Scattered Clouds,0,2013-09-10 10:05:00
5:10 AM,64.4,64.4,100,29.76,0.8,Calm,Calm,-,N/A,,Mist,0,2013-09-10 10:10:00
5:23 AM,62.6,62.6,100,29.77,0.2,Calm,Calm,-,N/A,Fog,Fog,0,2013-09-10 10:23:00
5:33 AM,64.4,62.6,94,29.77,0.5,Calm,Calm,-,N/A,Fog,Fog,0,2013-09-10 10:33:00
5:54 AM,62.1,61.0,96,29.77,1.0,Calm,Calm,-,N/A,,Mostly Cloudy,0,2013-09-10 10:54:00
6:02 AM,62.6,62.6,100,29.78,0.5,Calm,Calm,-,N/A,Fog,Fog,0,2013-09-10 11:02:00
6:09 AM,64.4,62.6,94,29.77,1.0,Calm,Calm,-,N/A,,Mostly Cloudy,0,2013-09-10 11:09:00
6:23 AM,64.4,62.6,94,29.77,0.5,Calm,Calm,-,N/A,Fog,Fog,0,2013-09-10 11:23:00
6:30 AM,64.4,62.6,94,29.78,0.2,Calm,Calm,-,N/A,Fog,Fog,0,2013-09-10 11:30:00
6:45 AM,64.4,62.6,94,29.78,0.2,Calm,Calm,-,N/A,Fog,Fog,0,2013-09-10 11:45:00
6:54 AM,64.9,64.0,97,29.78,0.8,Calm,Calm,-,N/A,,Mist,0,2013-09-10 11:54:00
6:56 AM,64.4,64.4,100,29.78,1.8,Calm,Calm,-,N/A,,Partly Cloudy,0,2013-09-10 11:56:00
7:03 AM,64.4,64.4,100,29.78,2.5,Calm,Calm,-,N/A,,Partly Cloudy,0,2013-09-10 12:03:00
7:19 AM,66.2,64.4,94,29.79,5.0,Calm,Calm,-,N/A,,Clear,0,2013-09-10 12:19:00
7:54 AM,70.0,69.1,97,29.79,5.0,Calm,Calm,-,N/A,,Clear,0,2013-09-10 12:54:00
8:54 AM,73.9,69.1,85,29.81,10.0,West,4.6,-,N/A,,Clear,280,2013-09-10 13:54:00
9:54 AM,77.0,68.0,74,29.82,10.0,West,10.4,18.4,N/A,,Mostly Cloudy,270,2013-09-10 14:54:00
10:13 AM,78.8,66.2,65,29.83,10.0,West,15.0,19.6,N/A,,Scattered Clouds,280,2013-09-10 15:13:00
10:54 AM,79.0,66.9,66,29.82,10.0,West,11.5,-,N/A,,Partly Cloudy,280,2013-09-10 15:54:00
11:54 AM,82.0,66.0,58,29.82,10.0,West,10.4,-,N/A,,Partly Cloudy,260,2013-09-10 16:54:00
12:54 PM,84.9,62.1,46,29.83,10.0,WSW,10.4,20.7,N/A,,Clear,250,2013-09-10 17:54:00
1:54 PM,84.9,62.1,46,29.84,10.0,WNW,12.7,21.9,N/A,,Clear,290,2013-09-10 18:54:00
2:54 PM,82.9,61.0,47,29.85,10.0,WNW,15.0,21.9,N/A,,Mostly Cloudy,300,2013-09-10 19:54:00
3:54 PM,77.0,63.0,62,29.87,10.0,NW,11.5,20.7,N/A,,Mostly Cloudy,320,2013-09-10 20:54:00
4:54 PM,70.0,66.0,87,29.90,10.0,NW,6.9,-,0.01,Rain,Light Rain,310,2013-09-10 21:54:00
5:54 PM,69.1,64.9,87,29.89,10.0,Calm,Calm,-,0.00,Rain,Light Rain,0,2013-09-10 22:54:00
6:54 PM,69.1,64.9,87,29.89,10.0,West,3.5,-,0.00,,Partly Cloudy,260,2013-09-10 23:54:00
7:54 PM,69.1,64.0,84,29.89,10.0,WNW,3.5,-,N/A,,Overcast,290,2013-09-11 00:54:00
8:54 PM,68.0,63.0,84,29.91,10.0,West,4.6,-,0.00,,Scattered Clouds,280,2013-09-11 01:54:00
9:54 PM,66.9,63.0,87,29.91,10.0,West,3.5,-,N/A,,Clear,270,2013-09-11 02:54:00
10:54 PM,64.9,60.1,84,29.90,10.0,West,4.6,-,N/A,,Clear,260,2013-09-11 03:54:00
11:54 PM,64.9,59.0,81,29.90,10.0,West,5.8,-,N/A,,Clear,280,2013-09-11 04:54:00